Location: Rometta
(44.2000°N, 10.0500°E)
Time: 12:10:34
(UTC+00:00)

Cosmos 1818 - Pass Details

Date: 15 May 2021
Orbit: 771 x 802 km, 65.0° (Epoch: 15 June)

Event Time Altitude Azimuth Distance (km) Brightness Sun altitude
Rises 22:01:49 0° 320° (NW) 3,319 7.9 -24.5°
Reaches altitude 10° 22:04:21 10° 314° (NW) 2,385 6.9 -24.6°
Maximum altitude 22:09:30 43° 244° (WSW) 1,110 4.2 -24.9°
Enters shadow 22:09:54 43° 232° (SW) 1,121 4.1 -24.9°
